Regional Weather Roundup
Issued by NWS Sioux Falls, SD

Home | Current Version | Previous Version | Text Only | Print | Product List | Glossary On
Versions: 1 2 3 4 5 6 7 8 9 10 11 12 13 14 15 16 17 18 19 20 21 22 23 24 25 26 27 28 29 30 31 32 33 34 35 36 37 38 39 40 41 42 43 44 45 46 47 48 49 50
000
ASUS43 KFSD 260910
RWRFSD

WEATHER ROUNDUP FOR SE SOUTH DAKOTA/SW MINNESOTA/NW IOWA
NATIONAL WEATHER SERVICE SIOUX FALLS SD
400 AM CDT SAT JUL 26 2014

NOTE: "FAIR" INDICATES FEW OR NO CLOUDS BELOW 12,000 FEET WITH NO
SIGNIFICANT WEATHER AND OR OBSTRUCTIONS TO VISIBILITY.


SDZ038>040-050-052>070-261000-
SOUTHEAST SOUTH DAKOTA

CITY           SKY/WX    TMP DP  RH WIND       PRES   REMARKS
CHAMBERLAIN    PTCLDY    69  65  88 SE8       29.83R
HURON          CLOUDY    69  66  90 VRB3      29.82R
MADISON        FAIR      66  66 100 E10       29.82F
MITCHELL       MOCLDY    69  67  93 NE6       29.81F
SIOUX FALLS    MOCLDY    72  70  93 NE10      29.83S
WINNER         FAIR      70  66  87 E8        29.81F
YANKTON        PTCLDY    70  70 100 SE7       29.79F
$$

MNZ071-072-080-081-089-090-097-098-261000-
SOUTHWEST MINNESOTA

CITY           SKY/WX    TMP DP  RH WIND       PRES   REMARKS
FAIRMONT       CLOUDY    72  66  83 W5        29.83F
JACKSON        CLOUDY    72  68  88 CALM      29.86R
LUVERNE        CLOUDY    72  70  94 NE6       29.84S
MARSHALL       PTCLDY    64  63  94 SW8       29.83R
MONTEVIDEO     PTCLDY    64  63  94 CALM      29.83S FOG
PIPESTONE      MOCLDY    70  66  88 S3        29.86S
REDWOOD FALLS  PTCLDY    69  68  96 CALM      29.81F FOG
TRACY          MOCLDY    68  67  96 CALM      29.84S FOG
WINDOM         PTCLDY    70  68  94 N5        29.84F FOG
WORTHINGTON    CLOUDY    72  70  94 N7        29.86F
$$

IAZ001>003-012>014-020>022-031-032-NEZ013-014-SDZ071-261000-
NORTHWEST IOWA

CITY           SKY/WX    TMP DP  RH WIND       PRES   REMARKS
CHEROKEE       CLEAR     69  69 100 CALM      29.84R FOG
DENISON        PTCLDY    70  70 100 CALM      29.83R FOG
ESTHERVILLE    CLOUDY    70  69  97 W3        29.83F FOG
LE MARS        PTCLDY    68  68 100 CALM      29.82S
ORANGE CITY    PTCLDY    72  66  83 E5        29.82F FOG
SHELDON        MOCLDY    68  68 100 E3        29.82F FOG
SIOUX CITY     MOCLDY    74  70  87 E5        29.79F
SPENCER        MOCLDY    69  67  93 N6        29.83F FOG
STORM LAKE     FOG       66  66 100 CALM      29.85R VSB<1/4
$$

ABBREVIATIONS USED IN REMARKS
   TC - TEMPERATURE IN CELSIUS
  WCI - WIND CHILL INDEX
   HX - HEAT INDEX
  VSB - VISIBILITY



USA.gov is the U.S. government's official web portal to all federal, state and local government web resources and services.